Location: Villingen
(48.0639°N, 8.4609°E)
Time: 12:35:12
(UTC+01:00)

ISS - Pass Details

Date: 05 January 2018
Orbit: 402 x 407 km, 51.6° (Epoch: 19 January)

Event Time Altitude Azimuth Distance (km) Brightness Sun altitude
Exits shadow 06:03:45 40° 30° (NNE) 613 -2.9 -21.1°
Drops below altitude 10° 06:06:22 10° 67° (ENE) 1,504 -0.2 -20.7°
Sets 06:08:25 0° 73° (ENE) 2,334 1.1 -20.4°
